Weather in Levashovo

Russia / Yaroslavl Oblast     57°38′40″N   40°31′42″E
temp.,
°C
wind,
m/s
gust,
m/s
humid.,
%
clouds,
%
prec.,
mm/h
press.,
hPa
HPBL,
m
19 april, mon
mon1900:00+5ene51080100 0.0 1028608
03:00+4ene51079100 0.0 1028504
06:00+2ene51073100 0.0 1029492
09:00+4e695541 0.0 1029815
12:00+8e79445 0.0 10291431
15:00+9e784011 0.0 10281860
18:00+7e68444 0.0 10281598
21:00+4e512540 0.0 1029532
20 april, tue
tue2000:00+2e5136213 0.0 1030469
03:000e512665 0.0 1029401
06:000e5136325 0.0 1028457
09:00+5ese7114928 0.0 1028780
12:00+9ese8114494 0.0 10261407
15:00+10ese81144100 0.0 10241578
18:00+9ese7124836 0.0 10221365
21:00+6e71447100 0.0 1021724
21 april, wed
wed2100:00+5e71550100 0.0 1018737
03:00+4e81553100 0.1 1014996
06:000e91896100 2.8 1010964
09:00+1e91897100 5.3 1007879
12:00+3ese91893100 1.9 1004955
15:00+5se91597100 2.6 10011229
18:00+3s91497100 0.9 1003949
21:00+3ssw81392100 1.2 10081034
22 april, thu
thu2200:00+4ssw71388100 0.1 1010831
03:00+4s51288100 0.1 1011488
06:00+4s6119097 0.0 1012620
09:00+6ssw71181100 0.0 1012994
12:00+5ssw61291100 0.5 1014992
15:00+7ssw6985100 0.6 1015769
18:00+8sw5980100 0.0 1016817
21:00+5ssw389399 0.0 1017149
23 april, fri
fri2300:00+4s34935 0.0 101868
03:00+4sse23940 0.0 101836
06:00+4sse37958 0.0 1018137
09:00+11sse57765 0.0 1017464
12:00+15s6105837 0.3 10171361
15:00+17ssw784616 0.8 10152191
18:00+15s5105838 0.0 1015470
21:00+10sse4127615 0.1 1015251